timestamp,surface_pressure_avg,surface_temp_avg,battery_voltage,lat,long
2023-04-22 00:09:00+00:00,381.2396,1.9,12.89,47.84626,-54.09684
2023-04-22 00:19:00+00:00,384.0796,1.9,12.81,47.84626,-54.09684
2023-04-22 00:29:00+00:00,380.5946,1.9,12.81,47.84626,-54.09684
2023-04-22 00:39:00+00:00,383.2596,1.9,12.81,47.84626,-54.09684
2023-04-22 00:49:00+00:00,388.9794,1.9,12.81,47.84626,-54.09684
2023-04-22 00:59:00+00:00,387.7596,1.87,12.81,47.84626,-54.09684
2023-04-22 01:09:00+00:00,385.4396,1.8,12.81,47.84626,-54.09684
2023-04-22 01:19:00+00:00,383.6111,1.8,12.73,47.84626,-54.09684
2023-04-22 01:29:00+00:00,382.883,1.81,12.73,47.84626,-54.09684
2023-04-22 01:39:00+00:00,374.8962,2.0,12.73,47.84626,-54.09684
2023-04-22 01:49:00+00:00,367.8179,1.9,12.73,47.84626,-54.09684
2023-04-22 01:59:00+00:00,370.0696,1.82,12.73,47.84626,-54.09684
2023-04-22 02:09:00+00:00,368.4146,1.9,12.73,47.84626,-54.09684
2023-04-22 02:19:01+00:00,358.8846,1.9,12.73,47.84626,-54.09684
2023-04-22 02:29:01+00:00,351.2463,1.89,12.73,47.84626,-54.09684
2023-04-22 02:39:01+00:00,347.7913,1.9,12.73,47.84626,-54.09684
2023-04-22 02:49:01+00:00,342.5862,1.9,12.73,47.84626,-54.09684
2023-04-22 02:59:01+00:00,335.3280000000001,1.92,12.73,47.84626,-54.09684
2023-04-22 03:09:01+00:00,325.7646,1.96,12.73,47.84626,-54.09684
2023-04-22 03:19:00+00:00,317.5213,1.99,12.65,47.84626,-54.09684
2023-04-22 03:29:00+00:00,313.3029,2.0,12.65,47.84626,-54.09684
2023-04-22 03:39:00+00:00,302.5563,2.0,12.65,47.84626,-54.09684
2023-04-22 03:49:00+00:00,290.7498,1.99,12.65,47.84626,-54.09684
2023-04-22 03:59:00+00:00,286.048,1.99,12.65,47.84626,-54.09684
2023-04-22 04:09:00+00:00,282.7014,1.9,12.65,47.84626,-54.09684
2023-04-22 04:19:00+00:00,271.3797,1.9,12.65,47.84626,-54.09684
2023-04-22 04:29:00+00:00,259.1397,1.91,12.65,47.84626,-54.09684
2023-04-22 04:39:00+00:00,251.9181,1.9,12.65,47.84626,-54.09684
2023-04-22 04:49:00+00:00,243.1014,1.9,12.65,47.84626,-54.09684
2023-04-22 04:59:00+00:00,228.7698,1.9,12.65,47.84626,-54.09684
2023-04-22 05:09:00+00:00,219.1047,1.9,12.65,47.84626,-54.09684
2023-04-22 05:19:00+00:00,213.7398,1.9,12.65,47.84626,-54.09684
2023-04-22 05:29:00+00:00,205.5565,1.91,12.65,47.84626,-54.09684
2023-04-22 05:39:00+00:00,198.9464,1.96,12.65,47.84626,-54.09684
2023-04-22 05:49:00+00:00,196.4748,1.98,12.65,47.84626,-54.09684
2023-04-22 05:59:00+00:00,190.0098,2.0,12.65,47.84626,-54.09684
2023-04-22 06:09:00+00:00,182.5248,2.0,12.65,47.84626,-54.09684
2023-04-22 06:19:00+00:00,182.6748,2.0,12.65,47.84626,-54.09684
2023-04-22 06:29:00+00:00,183.9865,1.99,12.65,47.84626,-54.09684
2023-04-22 06:39:00+00:00,180.6548,1.99,12.65,47.84626,-54.09684
2023-04-22 06:49:00+00:00,180.4865,1.99,12.65,47.84626,-54.09684
2023-04-22 06:59:00+00:00,185.2681,1.98,12.65,47.84626,-54.09684
2023-04-22 07:09:00+00:00,185.2981,1.97,12.65,47.84626,-54.09684
2023-04-22 07:19:00+00:00,182.6198,1.93,12.57,47.84626,-54.09684
2023-04-22 07:29:00+00:00,188.6215,1.9,12.57,47.84626,-54.09684
2023-04-22 07:39:00+00:00,195.9431,1.9,12.57,47.84626,-54.09684
2023-04-22 07:49:00+00:00,195.3665,1.9,12.57,47.84626,-54.09684
2023-04-22 07:59:00+00:00,196.2264,1.8,12.57,47.84626,-54.09684
2023-04-22 08:09:00+00:00,203.2315,1.8,12.57,47.84626,-54.09684
2023-04-22 08:19:00+00:00,205.1948,1.66,12.57,47.84626,-54.09684
2023-04-22 08:29:00+00:00,203.2348,1.7,12.57,47.84626,-54.09684
2023-04-22 08:39:00+00:00,207.7548,1.47,12.57,47.84626,-54.09684
2023-04-22 08:49:00+00:00,212.9948,1.3,12.57,47.84626,-54.09684
2023-04-22 08:59:00+00:00,214.3698,1.31,12.57,47.84626,-54.09684
2023-04-22 09:09:00+00:00,220.5231,1.52,12.57,47.84626,-54.09684
2023-04-22 09:19:00+00:00,226.8031,1.48,12.57,47.84626,-54.09684
2023-04-22 09:29:00+00:00,227.8731,1.27,12.57,47.84626,-54.09684
2023-04-22 09:39:00+00:00,231.2664,1.1,12.57,47.84626,-54.09684
2023-04-22 09:49:00+00:00,239.3414,1.1,12.57,47.84626,-54.09684
2023-04-22 09:59:00+00:00,246.5848,1.49,12.57,47.84626,-54.09684
2023-04-22 10:09:00+00:00,252.2597,1.47,12.57,47.84626,-54.09684
2023-04-22 10:19:00+00:00,259.1397,1.08,12.57,47.84626,-54.09684
2023-04-22 10:29:00+00:00,266.8497,1.04,12.57,47.84626,-54.09684
2023-04-22 10:39:00+00:00,273.478,1.56,12.57,47.84626,-54.09684
2023-04-22 10:49:00+00:00,281.5331,1.34,12.57,47.84626,-54.09684
2023-04-22 10:59:00+00:00,291.4564,1.06,12.57,47.84626,-54.09684
2023-04-22 11:09:00+00:00,300.6431,1.08,12.57,47.84626,-54.09684
2023-04-22 11:19:00+00:00,308.6414,1.0,12.65,47.84626,-54.09684
2023-04-22 11:29:00+00:00,317.313,0.9,12.65,47.84626,-54.09684
2023-04-22 11:39:00+00:00,325.668,0.9,12.65,47.84626,-54.09684
2023-04-22 11:49:00+00:00,330.0596,0.95,12.65,47.84626,-54.09684
2023-04-22 11:59:00+00:00,334.048,1.38,12.65,47.84626,-54.09684
2023-04-22 12:09:00+00:00,341.0797,1.45,12.65,47.84626,-54.09684
2023-04-22 12:19:00+00:00,346.5912,1.47,12.73,47.84626,-54.09684
2023-04-22 12:29:00+00:00,345.9313,1.44,12.73,47.84626,-54.09684
2023-04-22 12:39:00+00:00,346.9479,1.4,12.73,47.84626,-54.09684
2023-04-22 12:49:00+00:00,347.8047,1.4,12.73,47.84626,-54.09684
2023-04-22 12:59:00+00:00,349.6946,1.4,12.73,47.84626,-54.09684
2023-04-22 13:09:00+00:00,352.773,1.4,12.73,47.84626,-54.09684
2023-04-22 13:19:00+00:00,353.8463,1.4,12.97,47.84626,-54.09684
2023-04-22 13:29:00+00:00,349.32800000000015,1.4,12.97,47.84626,-54.09684
2023-04-22 13:39:00+00:00,344.12800000000016,1.4,12.97,47.84626,-54.09684
2023-04-22 13:49:00+00:00,342.2046,1.39,12.97,47.84626,-54.09684
2023-04-22 13:59:00+00:00,340.9946,1.4,12.97,47.84626,-54.09684
2023-04-22 14:09:00+00:00,336.968,1.4,12.97,47.84626,-54.09684
2023-04-22 14:19:00+00:00,332.3713,1.4,13.53,47.84626,-54.09684
2023-04-22 14:29:00+00:00,330.923,1.4,13.53,47.84626,-54.09684
2023-04-22 14:39:00+00:00,326.033,1.3,13.53,47.84626,-54.09684
2023-04-22 14:49:00+00:00,319.293,1.2,13.53,47.84626,-54.09684
2023-04-22 14:59:00+00:00,317.798,1.1,13.53,47.84626,-54.09684
2023-04-22 15:09:00+00:00,313.8814,1.1,13.53,47.84626,-54.09684
2023-04-22 15:19:00+00:00,304.4681,1.17,13.6,47.84626,-54.09684
2023-04-22 15:29:00+00:00,299.1097,1.35,13.6,47.84626,-54.09684
2023-04-22 15:39:00+00:00,299.6281,1.35,13.6,47.84626,-54.09684
2023-04-22 15:49:00+00:00,289.8748,1.39,13.6,47.84626,-54.09684
2023-04-22 15:59:00+00:00,278.5214,1.52,13.6,47.84626,-54.09684
2023-04-22 16:09:00+00:00,275.9997,1.5,13.6,47.84626,-54.09684
2023-04-22 16:19:00+00:00,270.2714,1.52,13.6,47.84626,-54.09684
2023-04-22 16:29:00+00:00,255.5481,1.5,13.6,47.84626,-54.09684
2023-04-22 16:39:00+00:00,246.7064,1.41,13.6,47.84626,-54.09684
2023-04-22 16:49:00+00:00,243.1031,1.56,13.6,47.84626,-54.09684
2023-04-22 16:59:00+00:00,233.2564,1.54,13.6,47.84626,-54.09684
2023-04-22 17:09:00+00:00,219.9698,1.46,13.6,47.84626,-54.09684
2023-04-22 17:19:00+00:00,216.1564,1.35,13.37,47.84626,-54.09684
2023-04-22 17:29:00+00:00,210.8798,1.36,13.37,47.84626,-54.09684
2023-04-22 17:39:00+00:00,200.5848,1.49,13.37,47.84626,-54.09684
2023-04-22 17:49:00+00:00,195.0131,1.63,13.37,47.84626,-54.09684
2023-04-22 17:59:00+00:00,194.5298,1.7,13.37,47.84626,-54.09684
2023-04-22 18:09:00+00:00,187.7698,1.77,13.37,47.84626,-54.09684
2023-04-22 18:19:00+00:00,179.6398,1.8,13.37,47.84626,-54.09684
2023-04-22 18:29:00+00:00,180.8932,1.7,13.37,47.84626,-54.09684
2023-04-22 18:39:00+00:00,180.7798,1.64,13.37,47.84626,-54.09684
2023-04-22 18:49:00+00:00,177.5531,1.59,13.37,47.84626,-54.09684
2023-04-22 18:59:00+00:00,182.3065,1.48,13.37,47.84626,-54.09684
2023-04-22 19:09:00+00:00,189.5565,1.47,13.37,47.84626,-54.09684
2023-04-22 19:19:00+00:00,189.3748,1.4,13.37,47.84626,-54.09684
2023-04-22 19:29:00+00:00,193.5348,1.5,13.37,47.84626,-54.09684
2023-04-22 19:39:00+00:00,203.1031,1.58,13.37,47.84626,-54.09684
2023-04-22 19:49:00+00:00,205.8897,1.5,13.37,47.84626,-54.09684
2023-04-22 19:59:00+00:00,207.6165,1.4,13.37,47.84626,-54.09684
2023-04-22 20:09:00+00:00,214.7964,1.3,13.37,47.84626,-54.09684
2023-04-22 20:19:00+00:00,219.8948,1.3,13.29,47.84626,-54.09684
2023-04-22 20:29:00+00:00,221.6381,1.32,13.29,47.84626,-54.09684
2023-04-22 20:39:00+00:00,226.8215,1.35,13.29,47.84626,-54.09684
2023-04-22 20:49:00+00:00,232.5131,1.31,13.29,47.84626,-54.09684
2023-04-22 20:59:00+00:00,233.1097,1.36,13.29,47.84626,-54.09684
2023-04-22 21:09:00+00:00,234.8614,1.39,13.29,47.84626,-54.09684
2023-04-22 21:19:00+00:00,241.703,1.4,13.05,47.84626,-54.09684
2023-04-22 21:29:00+00:00,246.5598,1.4,13.05,47.84626,-54.09684
2023-04-22 21:39:00+00:00,248.6697,1.4,13.05,47.84626,-54.09684
2023-04-22 21:49:00+00:00,251.6531,1.4,13.05,47.84626,-54.09684
2023-04-22 21:59:00+00:00,260.8897,1.4,13.05,47.84626,-54.09684
2023-04-22 22:09:00+00:00,265.8964,1.4,13.05,47.84626,-54.09684
2023-04-22 22:19:00+00:00,269.0314,1.4,12.97,47.84626,-54.09684
2023-04-22 22:29:00+00:00,274.6115,1.46,12.97,47.84626,-54.09684
2023-04-22 22:39:00+00:00,284.0581,1.3,12.97,47.84626,-54.09684
2023-04-22 22:49:00+00:00,289.5147,1.24,12.97,47.84626,-54.09684
2023-04-22 22:59:00+00:00,296.558,1.36,12.97,47.84626,-54.09684
2023-04-22 23:09:00+00:00,305.0597,1.4,12.97,47.84626,-54.09684
2023-04-22 23:19:00+00:00,312.8513,1.4,12.81,47.84626,-54.09684
2023-04-22 23:29:00+00:00,318.6864,1.2,12.81,47.84626,-54.09684
2023-04-22 23:39:00+00:00,326.0546,1.19,12.81,47.84626,-54.09684
2023-04-22 23:49:00+00:00,333.8880000000001,1.19,12.81,47.84626,-54.09684
2023-04-22 23:59:00+00:00,340.0914,1.23,12.81,47.84626,-54.09684
